,,,PA_Meas_PMT16A,,PR_Meas_QMR101_102,,RH_Meas_QMH101,,SR_Meas_QMS101,,TA_Meas_QMH101,,GenWind,,GenWind,
date,time,status,PA,status,PR,status,RH,status,SR,status,TA,status,DirAvg,status,SpdAvg,
2011-10-01, 00:00:05,VALID,999.994,VALID,0,VALID,85.3373,VALID,0,VALID,24.5794,VALID,94,VALID,0.608203,
2011-10-01, 00:01:05,VALID,999.998,VALID,0,VALID,85.4517,VALID,0,VALID,24.558,VALID,94,VALID,0.679688,
2011-10-01, 00:02:05,VALID,999.973,VALID,0,VALID,85.3907,VALID,0,VALID,24.5385,VALID,94,VALID,0.605859,
2011-10-01, 00:03:05,VALID,999.963,VALID,0,VALID,85.6654,VALID,0,VALID,24.5404,VALID,94,VALID,0.497266,
2011-10-01, 00:04:05,VALID,999.953,VALID,0,VALID,85.673,VALID,0,VALID,24.519,VALID,94,VALID,0.398828,
2011-10-01, 00:05:05,VALID,999.952,VALID,0,VALID,85.673,VALID,0,VALID,24.5404,VALID,94,VALID,0.398047,
2011-10-01, 00:06:05,VALID,999.931,VALID,0,VALID,85.734,VALID,0,VALID,24.519,VALID,94,VALID,0.350781,
2011-10-01, 00:07:05,VALID,999.954,VALID,0,VALID,85.7874,VALID,0,VALID,24.5013,VALID,94,VALID,0.388281,
2011-10-01, 00:08:05,VALID,999.899,VALID,0,VALID,86.0774,VALID,0,VALID,24.4818,VALID,94,VALID,0.451172,
2011-10-01, 00:09:05,VALID,999.912,VALID,0,VALID,86.0926,VALID,0,VALID,24.4604,VALID,94,VALID,0.410937,
2011-10-01, 00:10:05,VALID,999.943,VALID,0,VALID,85.9248,VALID,0.104696,VALID,24.4604,VALID,94,VALID,0.469922,
2011-10-01, 00:11:05,VALID,999.917,VALID,0,VALID,85.9858,VALID,0,VALID,24.4623,VALID,94,VALID,0.021875,
2011-10-01, 00:12:05,VALID,999.911,VALID,0,VALID,86.0163,VALID,0,VALID,24.4623,VALID,94,VALID,0.250391,
2011-10-01, 00:13:05,VALID,999.887,VALID,0,VALID,86.1079,VALID,0,VALID,24.4019,VALID,94,VALID,0.200391,
2011-10-01, 00:14:05,VALID,999.879,VALID,0,VALID,86.1689,VALID,0,VALID,24.3842,VALID,94,VALID,0.380859,
2011-10-01, 00:15:05,VALID,999.861,VALID,0,VALID,86.3978,VALID,0,VALID,24.3238,VALID,94,VALID,0.3625,
2011-10-01, 00:16:05,VALID,999.831,VALID,0,VALID,86.7793,VALID,0,VALID,24.3043,VALID,94,VALID,0.266016,
2011-10-01, 00:17:05,VALID,999.786,VALID,0,VALID,86.7106,VALID,0,VALID,24.3062,VALID,94,VALID,0.383594,
2011-10-01, 00:18:05,VALID,999.766,VALID,0,VALID,86.6191,VALID,0,VALID,24.2866,VALID,94,VALID,0.196094,
2011-10-01, 00:19:05,VALID,999.755,VALID,0,VALID,86.8632,VALID,0,VALID,24.2671,VALID,94,VALID,0.171875,
2011-10-01, 00:20:05,VALID,999.714,VALID,0,VALID,86.8556,VALID,0,VALID,24.2263,VALID,94,VALID,0.164844,
2011-10-01, 00:21:05,VALID,999.699,VALID,0,VALID,87.0387,VALID,0,VALID,24.2086,VALID,94,VALID,0.0878906,
2011-10-01, 00:22:05,VALID,999.653,VALID,0,VALID,87.0997,VALID,0,VALID,24.1891,VALID,94,VALID,0.0742188,
2011-10-01, 00:23:05,VALID,999.643,VALID,0,VALID,87.0692,VALID,0,VALID,24.15,VALID,94,VALID,0.0257812,
2011-10-01, 00:24:05,VALID,999.62,VALID,0,VALID,87.0997,VALID,0,VALID,24.1305,VALID,94,VALID,0.219531,
2011-10-01, 00:25:05,VALID,999.578,VALID,0,VALID,87.321,VALID,0,VALID,24.0915,VALID,94,VALID,0.0433594,
2011-10-01, 00:26:05,VALID,999.546,VALID,0,VALID,87.5346,VALID,0,VALID,24.072,VALID,94,VALID,0.152344,
2011-10-01, 00:27:05,VALID,999.557,VALID,0,VALID,87.7483,VALID,0,VALID,24.0525,VALID,94,VALID,0,
2011-10-01, 00:28:05,VALID,999.506,VALID,0,VALID,87.8322,VALID,0,VALID,24.0311,VALID,94,VALID,0,
2011-10-01, 00:29:05,VALID,999.477,VALID,0,VALID,87.9924,VALID,0.104696,VALID,24.0311,VALID,94,VALID,0.0707031,
2011-10-01, 00:30:05,VALID,999.435,VALID,0,VALID,87.9466,VALID,0,VALID,24.0311,VALID,94,VALID,0,
2011-10-01, 00:31:05,VALID,999.461,VALID,0,VALID,87.9695,VALID,0.104696,VALID,24.0525,VALID,94,VALID,0.00117188,
2011-10-01, 00:32:05,VALID,999.445,VALID,0,VALID,88.0306,VALID,0,VALID,24.0506,VALID,94,VALID,0.00351562,
2011-10-01, 00:33:05,VALID,999.41,VALID,0,VALID,88.0229,VALID,0,VALID,24.072,VALID,94,VALID,0.0882813,
2011-10-01, 00:34:05,VALID,999.387,VALID,0,VALID,87.9771,VALID,0,VALID,24.111,VALID,94,VALID,0.301172,
2011-10-01, 00:35:05,VALID,999.377,VALID,0,VALID,87.8169,VALID,0,VALID,24.0897,VALID,94,VALID,0.294922,
2011-10-01, 00:36:05,VALID,999.35,VALID,0,VALID,87.6491,VALID,0,VALID,24.1287,VALID,94,VALID,0.200781,
2011-10-01, 00:37:05,VALID,999.347,VALID,0,VALID,87.2371,VALID,0,VALID,24.1677,VALID,94,VALID,0.277734,
2011-10-01, 00:38:05,VALID,999.321,VALID,0,VALID,86.6725,VALID,0,VALID,24.2086,VALID,145,VALID,0.825,
2011-10-01, 00:39:05,VALID,999.296,VALID,0,VALID,86.436,VALID,0,VALID,24.2671,VALID,145,VALID,0.707812,
2011-10-01, 00:40:05,VALID,999.275,VALID,0,VALID,86.0621,VALID,0,VALID,24.3257,VALID,146,VALID,0.967188,
2011-10-01, 00:41:05,VALID,999.257,VALID,0,VALID,85.7798,VALID,0,VALID,24.4037,VALID,146,VALID,1.1418,
2011-10-01, 00:42:05,VALID,999.222,VALID,0,VALID,85.4212,VALID,0,VALID,24.4818,VALID,146,VALID,0.848828,
2011-10-01, 00:43:05,VALID,999.231,VALID,0,VALID,85.0169,VALID,0,VALID,24.5599,VALID,146,VALID,0.689453,
2011-10-01, 00:44:05,VALID,999.201,VALID,0,VALID,84.7193,VALID,0,VALID,24.5775,VALID,146,VALID,0.766406,
2011-10-01, 00:45:05,VALID,999.207,VALID,0,VALID,84.4599,VALID,0,VALID,24.6166,VALID,146,VALID,0.782031,
2011-10-01, 00:46:05,VALID,999.199,VALID,0,VALID,84.292,VALID,0.104696,VALID,24.6166,VALID,159,VALID,0.880859,
2011-10-01, 00:47:05,VALID,999.191,VALID,0,VALID,84.0403,VALID,0,VALID,24.6575,VALID,177,VALID,1.01602,
2011-10-01, 00:48:05,VALID,999.203,VALID,0,VALID,83.8724,VALID,0.104696,VALID,24.6751,VALID,169,VALID,1.13672,
2011-10-01, 00:49:05,VALID,999.178,VALID,0,VALID,83.7427,VALID,0,VALID,24.716,VALID,169,VALID,0.967188,
2011-10-01, 00:50:05,VALID,999.202,VALID,0,VALID,83.552,VALID,0,VALID,24.7551,VALID,169,VALID,1.16211,
2011-10-01, 00:51:05,VALID,999.201,VALID,0,VALID,83.3078,VALID,0.104696,VALID,24.7337,VALID,169,VALID,1.03359,
2011-10-01, 00:52:05,VALID,999.174,VALID,0,VALID,83.0942,VALID,0,VALID,24.7551,VALID,169,VALID,0.829687,
2011-10-01, 00:53:05,VALID,999.181,VALID,0,VALID,82.9263,VALID,0,VALID,24.7765,VALID,169,VALID,1.12852,
2011-10-01, 00:54:05,VALID,999.17,VALID,0,VALID,82.7661,VALID,0,VALID,24.7746,VALID,169,VALID,1.00742,
2011-10-01, 00:55:05,VALID,999.17,VALID,0,VALID,82.4762,VALID,0,VALID,24.7746,VALID,169,VALID,1.20469,
2011-10-01, 00:56:05,VALID,999.148,VALID,0,VALID,82.2397,VALID,0,VALID,24.8136,VALID,166,VALID,1.32852,
2011-10-01, 00:57:05,VALID,999.13,VALID,0,VALID,82.1481,VALID,0,VALID,24.8136,VALID,163,VALID,1.24766,
2011-10-01, 00:58:05,VALID,999.162,VALID,0,VALID,82.0489,VALID,0,VALID,24.835,VALID,176,VALID,1.27266,
2011-10-01, 00:59:05,VALID,999.141,VALID,0,VALID,81.9726,VALID,0,VALID,24.8741,VALID,169,VALID,1.21445,
2011-10-01, 01:00:05,VALID,999.164,VALID,0,VALID,81.5759,VALID,0,VALID,24.9326,VALID,181,VALID,1.31406,
2011-10-01, 01:01:05,VALID,999.147,VALID,0,VALID,81.2478,VALID,0,VALID,25.0107,VALID,233,VALID,1.06484,
2011-10-01, 01:02:05,VALID,999.145,VALID,0,VALID,80.9732,VALID,0,VALID,25.0088,VALID,227,VALID,0.750391,
2011-10-01, 01:03:05,VALID,999.108,VALID,0,VALID,80.8511,VALID,0,VALID,25.0303,VALID,216,VALID,0.805469,
2011-10-01, 01:04:05,VALID,999.099,VALID,0,VALID,80.668,VALID,0,VALID,24.9893,VALID,210,VALID,0.920313,
2011-10-01, 01:05:05,VALID,999.079,VALID,0,VALID,80.6069,VALID,0,VALID,24.9912,VALID,198,VALID,0.826953,
2011-10-01, 01:06:05,VALID,999.072,VALID,0,VALID,80.8206,VALID,0,VALID,24.9717,VALID,207,VALID,0.885938,
2011-10-01, 01:07:05,VALID,999.032,VALID,0,VALID,81.0495,VALID,0,VALID,24.9308,VALID,225,VALID,0.666797,
2011-10-01, 01:08:05,VALID,999.01,VALID,0,VALID,81.2249,VALID,0.104696,VALID,24.8703,VALID,228,VALID,0.716797,
2011-10-01, 01:09:05,VALID,998.962,VALID,0,VALID,81.2173,VALID,0.104696,VALID,24.8722,VALID,229,VALID,0.661328,
2011-10-01, 01:10:05,VALID,998.929,VALID,0,VALID,81.2326,VALID,0,VALID,24.8508,VALID,229,VALID,0.575781,
2011-10-01, 01:11:05,VALID,998.907,VALID,0,VALID,81.4767,VALID,0,VALID,24.8527,VALID,229,VALID,0.297656,
2011-10-01, 01:12:05,VALID,998.865,VALID,0,VALID,81.6064,VALID,0,VALID,24.8136,VALID,229,VALID,0.533203,
2011-10-01, 01:13:05,VALID,998.858,VALID,0,VALID,82.4152,VALID,0,VALID,24.7337,VALID,229,VALID,0.432422,
2011-10-01, 01:14:05,VALID,998.815,VALID,0,VALID,82.8729,VALID,0,VALID,24.6556,VALID,229,VALID,0.468359,
2011-10-01, 01:15:05,VALID,998.82,VALID,0,VALID,83.2468,VALID,0.104696,VALID,24.5775,VALID,229,VALID,0.5625,
2011-10-01, 01:16:05,VALID,998.777,VALID,0,VALID,83.4833,VALID,0,VALID,24.5013,VALID,229,VALID,0.573438,
2011-10-01, 01:17:05,VALID,998.766,VALID,0,VALID,83.5977,VALID,0,VALID,24.4409,VALID,272,VALID,0.783594,
2011-10-01, 01:18:05,VALID,998.75,VALID,0,VALID,83.8877,VALID,0,VALID,24.4233,VALID,272,VALID,0.556641,
2011-10-01, 01:19:05,VALID,998.724,VALID,0,VALID,84.2234,VALID,0,VALID,24.3452,VALID,272,VALID,0.596875,
2011-10-01, 01:20:05,VALID,998.716,VALID,0,VALID,84.4599,VALID,0,VALID,24.2653,VALID,300,VALID,0.808594,
2011-10-01, 01:21:05,VALID,998.691,VALID,0,VALID,84.8185,VALID,0,VALID,24.2281,VALID,300,VALID,0.580469,
2011-10-01, 01:22:05,VALID,998.672,VALID,0,VALID,85.1542,VALID,0,VALID,24.1891,VALID,300,VALID,0.618359,
2011-10-01, 01:23:05,VALID,998.72,VALID,0,VALID,85.2,VALID,0,VALID,24.15,VALID,300,VALID,0.388281,
2011-10-01, 01:24:05,VALID,998.651,VALID,0,VALID,85.1923,VALID,0,VALID,24.1305,VALID,300,VALID,0.346484,
2011-10-01, 01:25:05,VALID,998.689,VALID,0,VALID,85.1542,VALID,0,VALID,24.0897,VALID,300,VALID,0.320313,
2011-10-01, 01:26:05,VALID,998.705,VALID,0,VALID,85.612,VALID,0,VALID,24.0701,VALID,300,VALID,0.276953,
2011-10-01, 01:27:05,VALID,998.751,VALID,0,VALID,85.4365,VALID,0,VALID,24.0311,VALID,300,VALID,0.292969,
2011-10-01, 01:28:05,VALID,998.762,VALID,0,VALID,85.9172,VALID,0,VALID,24.0329,VALID,300,VALID,0.326562,
2011-10-01, 01:29:05,VALID,998.792,VALID,0,VALID,86.291,VALID,0,VALID,23.9939,VALID,300,VALID,0.555859,
2011-10-01, 01:30:05,VALID,998.787,VALID,0,VALID,86.6877,VALID,0,VALID,23.9354,VALID,300,VALID,0.369531,
2011-10-01, 01:31:05,VALID,998.817,VALID,0,VALID,87.0769,VALID,0,VALID,23.8963,VALID,300,VALID,0.258594,
2011-10-01, 01:32:05,VALID,998.809,VALID,0,VALID,87.2752,VALID,0,VALID,23.8573,VALID,300,VALID,0.0988281,
2011-10-01, 01:33:05,VALID,998.796,VALID,0,VALID,87.4202,VALID,0,VALID,23.8378,VALID,300,VALID,0.135547,
2011-10-01, 01:34:05,VALID,998.782,VALID,0,VALID,87.6033,VALID,0,VALID,23.8183,VALID,300,VALID,0.120312,
2011-10-01, 01:35:05,VALID,998.787,VALID,0,VALID,87.7635,VALID,0,VALID,23.7988,VALID,300,VALID,0.232031,
2011-10-01, 01:36:05,VALID,998.807,VALID,0,VALID,88.0763,VALID,0,VALID,23.7402,VALID,300,VALID,0.524219,
2011-10-01, 01:37:05,VALID,998.808,VALID,0,VALID,88.29,VALID,0,VALID,23.7207,VALID,345,VALID,0.86875,
2011-10-01, 01:38:05,VALID,998.793,VALID,0,VALID,88.0458,VALID,0,VALID,23.6994,VALID,345,VALID,0.830859,
2011-10-01, 01:39:05,VALID,998.777,VALID,0,VALID,87.8093,VALID,0,VALID,23.7189,VALID,6,VALID,1.30508,
2011-10-01, 01:40:05,VALID,998.782,VALID,0,VALID,87.672,VALID,0,VALID,23.7012,VALID,14,VALID,1.44453,
2011-10-01, 01:41:05,VALID,998.751,VALID,0,VALID,87.5194,VALID,0,VALID,23.6622,VALID,14,VALID,1.3707,
2011-10-01, 01:42:05,VALID,998.822,VALID,0,VALID,87.5423,VALID,0,VALID,23.6232,VALID,14,VALID,1.37227,
2011-10-01, 01:43:05,VALID,998.802,VALID,0,VALID,87.6414,VALID,0,VALID,23.5841,VALID,14,VALID,1.26836,
2011-10-01, 01:44:05,VALID,998.821,VALID,0,VALID,87.8932,VALID,0,VALID,23.5646,VALID,15,VALID,1.28047,
2011-10-01, 01:45:05,VALID,998.776,VALID,0,VALID,88.206,VALID,0,VALID,23.5061,VALID,15,VALID,0.991016,
2011-10-01, 01:46:05,VALID,998.776,VALID,0,VALID,88.6409,VALID,0,VALID,23.428,VALID,15,VALID,0.866016,
2011-10-01, 01:47:05,VALID,998.743,VALID,0,VALID,89.1445,VALID,0,VALID,23.3287,VALID,15,VALID,0.851563,
2011-10-01, 01:48:05,VALID,998.729,VALID,0,VALID,89.7014,VALID,0,VALID,23.311,VALID,15,VALID,0.693359,
2011-10-01, 01:49:05,VALID,998.708,VALID,0,VALID,89.8769,VALID,0,VALID,23.2117,VALID,15,VALID,0.409766,
2011-10-01, 01:50:05,VALID,998.712,VALID,0,VALID,90.0295,VALID,0,VALID,23.1549,VALID,15,VALID,0.135547,
2011-10-01, 01:51:05,VALID,998.692,VALID,0,VALID,90.2126,VALID,0,VALID,23.1354,VALID,15,VALID,0,
2011-10-01, 01:52:05,VALID,998.692,VALID,0,VALID,90.4339,VALID,0,VALID,23.0964,VALID,15,VALID,0.0363281,
2011-10-01, 01:53:05,VALID,998.695,VALID,0,VALID,90.762,VALID,0,VALID,23.0964,VALID,15,VALID,0.18125,
2011-10-01, 01:54:05,VALID,998.659,VALID,0,VALID,91.0671,VALID,0,VALID,23.0769,VALID,15,VALID,0.353906,
2011-10-01, 01:55:05,VALID,998.657,VALID,0,VALID,91.1282,VALID,0,VALID,23.0378,VALID,15,VALID,0.910937,
2011-10-01, 01:56:05,VALID,998.638,VALID,0,VALID,91.0748,VALID,0,VALID,23.0573,VALID,17,VALID,1.23867,
2011-10-01, 01:57:05,VALID,998.634,VALID,0,VALID,90.9146,VALID,0,VALID,23.0946,VALID,18,VALID,1.12422,
2011-10-01, 01:58:05,VALID,998.651,VALID,0,VALID,90.617,VALID,0,VALID,23.1744,VALID,18,VALID,1.12695,
2011-10-01, 01:59:05,VALID,998.652,VALID,0,VALID,90.3347,VALID,0,VALID,23.2134,VALID,18,VALID,0.944922,
2011-10-01, 02:00:05,VALID,998.635,VALID,0,VALID,90.266,VALID,0,VALID,23.2719,VALID,19,VALID,1.17578,
2011-10-01, 02:01:05,VALID,998.665,VALID,0,VALID,89.9837,VALID,0,VALID,23.35,VALID,19,VALID,1.08594,
2011-10-01, 02:02:05,VALID,998.66,VALID,0,VALID,89.648,VALID,0,VALID,23.4475,VALID,19,VALID,0.921484,
2011-10-01, 02:03:05,VALID,998.652,VALID,0,VALID,89.2437,VALID,0,VALID,23.5256,VALID,19,VALID,0.802734,
2011-10-01, 02:04:05,VALID,998.623,VALID,0,VALID,88.9614,VALID,0,VALID,23.5628,VALID,19,VALID,0.966797,
2011-10-01, 02:05:05,VALID,998.602,VALID,0,VALID,88.8011,VALID,0,VALID,23.6036,VALID,19,VALID,0.887891,
2011-10-01, 02:06:05,VALID,998.6,VALID,0,VALID,88.5951,VALID,0,VALID,23.6622,VALID,19,VALID,1.11992,
2011-10-01, 02:07:05,VALID,998.544,VALID,0,VALID,88.5417,VALID,0.104696,VALID,23.7402,VALID,147,VALID,1.12188,
2011-10-01, 02:08:05,VALID,998.551,VALID,0,VALID,88.084,VALID,0,VALID,23.7775,VALID,152,VALID,1.31094,
2011-10-01, 02:09:05,VALID,998.525,VALID,0,VALID,87.672,VALID,0.104696,VALID,23.8963,VALID,152,VALID,0.951563,
2011-10-01, 02:10:05,VALID,998.53,VALID,0,VALID,87.3134,VALID,0,VALID,23.914,VALID,152,VALID,1.1457,
2011-10-01, 02:11:05,VALID,998.511,VALID,0,VALID,86.8785,VALID,0,VALID,23.9939,VALID,152,VALID,0.847656,
2011-10-01, 02:12:05,VALID,998.492,VALID,0,VALID,86.291,VALID,0,VALID,23.9921,VALID,152,VALID,1.09375,
2011-10-01, 02:13:04,VALID,998.476,VALID,0,VALID,85.9934,VALID,0.104696,VALID,24.0116,VALID,152,VALID,0.626172,
2011-10-01, 02:14:04,VALID,998.494,VALID,0,VALID,85.9095,VALID,0,VALID,24.0311,VALID,152,VALID,0.689453,
2011-10-01, 02:15:04,VALID,998.518,VALID,0,VALID,85.8485,VALID,0.104696,VALID,24.0116,VALID,152,VALID,0.447656,
2011-10-01, 02:16:04,VALID,998.519,VALID,0,VALID,85.8561,VALID,0,VALID,23.9939,VALID,152,VALID,0.477344,
2011-10-01, 02:17:04,VALID,998.541,VALID,0,VALID,86.1308,VALID,0,VALID,23.9744,VALID,152,VALID,0.532812,
2011-10-01, 02:18:04,VALID,998.526,VALID,0,VALID,86.2071,VALID,0,VALID,23.9549,VALID,152,VALID,0.250781,
2011-10-01, 02:19:04,VALID,998.529,VALID,0,VALID,86.4054,VALID,0,VALID,23.9354,VALID,152,VALID,0.628516,
2011-10-01, 02:20:04,VALID,998.539,VALID,0,VALID,86.909,VALID,0,VALID,23.8963,VALID,89,VALID,0.736719,
2011-10-01, 02:21:04,VALID,998.504,VALID,0,VALID,86.909,VALID,0,VALID,23.8165,VALID,89,VALID,0.830078,
2011-10-01, 02:22:04,VALID,998.488,VALID,0,VALID,87.4889,VALID,0,VALID,23.7402,VALID,56,VALID,0.977344,
2011-10-01, 02:23:04,VALID,998.509,VALID,0,VALID,87.8474,VALID,0,VALID,23.6799,VALID,56,VALID,0.899609,
2011-10-01, 02:24:04,VALID,998.472,VALID,0,VALID,87.7254,VALID,0,VALID,23.6622,VALID,56,VALID,0.498437,
2011-10-01, 02:25:04,VALID,998.437,VALID,0,VALID,87.5117,VALID,0,VALID,23.6019,VALID,56,VALID,0.507422,
2011-10-01, 02:26:04,VALID,998.436,VALID,0,VALID,87.7788,VALID,0,VALID,23.5646,VALID,56,VALID,0.36875,
2011-10-01, 02:27:04,VALID,998.4,VALID,0,VALID,87.8627,VALID,0,VALID,23.5646,VALID,56,VALID,0.233984,
2011-10-01, 02:28:04,VALID,998.353,VALID,0,VALID,87.7635,VALID,0,VALID,23.5043,VALID,56,VALID,0.402734,
2011-10-01, 02:29:04,VALID,998.351,VALID,0,VALID,87.6872,VALID,0,VALID,23.4848,VALID,56,VALID,0.416406,
2011-10-01, 02:30:04,VALID,998.295,VALID,0,VALID,87.9619,VALID,0,VALID,23.4653,VALID,56,VALID,0.772656,
2011-10-01, 02:31:04,VALID,998.321,VALID,0,VALID,88.2671,VALID,0.104696,VALID,23.4653,VALID,56,VALID,0.723047,
2011-10-01, 02:32:04,VALID,998.277,VALID,0,VALID,88.7783,VALID,0,VALID,23.4458,VALID,56,VALID,0.670703,
2011-10-01, 02:33:04,VALID,998.26,VALID,0,VALID,89.03,VALID,0,VALID,23.4866,VALID,56,VALID,0.674609,
2011-10-01, 02:34:04,VALID,998.257,VALID,0,VALID,88.969,VALID,0,VALID,23.4653,VALID,56,VALID,0.817578,
2011-10-01, 02:35:04,VALID,998.24,VALID,0,VALID,88.7706,VALID,0,VALID,23.4671,VALID,53,VALID,0.69375,
2011-10-01, 02:36:04,VALID,998.221,VALID,0,VALID,88.702,VALID,0,VALID,23.4067,VALID,51,VALID,1.01836,
2011-10-01, 02:37:04,VALID,998.247,VALID,0,VALID,88.8088,VALID,0,VALID,23.35,VALID,50,VALID,0.853125,
2011-10-01, 02:38:04,VALID,998.233,VALID,0,VALID,89.1063,VALID,0,VALID,23.2702,VALID,50,VALID,0.703516,
2011-10-01, 02:39:04,VALID,998.202,VALID,0,VALID,89.2589,VALID,0,VALID,23.2329,VALID,50,VALID,0.7375,
2011-10-01, 02:40:04,VALID,998.224,VALID,0,VALID,89.8464,VALID,0,VALID,23.2134,VALID,50,VALID,0.701172,
2011-10-01, 02:41:04,VALID,998.225,VALID,0,VALID,90.1134,VALID,0,VALID,23.2134,VALID,50,VALID,0.573828,
2011-10-01, 02:42:04,VALID,998.244,VALID,0,VALID,90.3347,VALID,0.104696,VALID,23.1921,VALID,50,VALID,0.471484,
2011-10-01, 02:43:04,VALID,998.263,VALID,0,VALID,90.4415,VALID,0,VALID,23.1726,VALID,50,VALID,0.5875,
2011-10-01, 02:44:04,VALID,998.267,VALID,0,VALID,90.6399,VALID,0,VALID,23.1531,VALID,50,VALID,0.528906,
2011-10-01, 02:45:04,VALID,998.297,VALID,0,VALID,90.7772,VALID,0,VALID,23.1531,VALID,50,VALID,0.76875,
2011-10-01, 02:46:04,VALID,998.288,VALID,0,VALID,90.8535,VALID,0.104696,VALID,23.1744,VALID,50,VALID,0.638672,
2011-10-01, 02:47:04,VALID,998.3,VALID,0,VALID,90.884,VALID,0,VALID,23.1549,VALID,50,VALID,0.749609,
2011-10-01, 02:48:04,VALID,998.325,VALID,0,VALID,91.0595,VALID,0,VALID,23.1549,VALID,50,VALID,0.612891,
2011-10-01, 02:49:04,VALID,998.335,VALID,0,VALID,91.1206,VALID,0,VALID,23.1549,VALID,50,VALID,0.635156,
2011-10-01, 02:50:04,VALID,998.316,VALID,0,VALID,91.2503,VALID,0,VALID,23.1531,VALID,50,VALID,0.612109,
2011-10-01, 02:51:04,VALID,998.346,VALID,0,VALID,91.3037,VALID,0,VALID,23.1744,VALID,50,VALID,0.597266,
2011-10-01, 02:52:04,VALID,998.334,VALID,0,VALID,91.3494,VALID,0,VALID,23.1549,VALID,50,VALID,0.660156,
2011-10-01, 02:53:04,VALID,998.285,VALID,0,VALID,91.3037,VALID,0,VALID,23.1336,VALID,50,VALID,0.640625,
2011-10-01, 02:54:04,VALID,998.314,VALID,0,VALID,91.1892,VALID,0.104696,VALID,23.0946,VALID,50,VALID,0.6375,
2011-10-01, 02:55:04,VALID,998.303,VALID,0,VALID,91.2121,VALID,0.104696,VALID,23.0556,VALID,50,VALID,0.695703,
2011-10-01, 02:56:04,VALID,998.319,VALID,0,VALID,91.2121,VALID,0,VALID,23.0166,VALID,50,VALID,0.815625,
2011-10-01, 02:57:04,VALID,998.29,VALID,0,VALID,91.3189,VALID,0,VALID,22.9793,VALID,50,VALID,1.07305,
2011-10-01, 02:58:04,VALID,998.29,VALID,0,VALID,91.5097,VALID,0.104696,VALID,22.9581,VALID,50,VALID,1.32227,
2011-10-01, 02:59:04,VALID,998.245,VALID,0,VALID,91.586,VALID,0,VALID,22.9793,VALID,50,VALID,1.34141,
2011-10-01, 03:00:04,VALID,998.238,VALID,0,VALID,91.5631,VALID,0,VALID,22.9581,VALID,50,VALID,1.07148,
2011-10-01, 03:01:04,VALID,998.268,VALID,0,VALID,91.5478,VALID,0,VALID,22.9598,VALID,63,VALID,1.12852,
2011-10-01, 03:02:04,VALID,998.275,VALID,0,VALID,91.6851,VALID,0,VALID,22.9385,VALID,63,VALID,1.02617,
2011-10-01, 03:03:04,VALID,998.285,VALID,0,VALID,91.7157,VALID,0,VALID,22.919,VALID,63,VALID,0.911719,
2011-10-01, 03:04:04,VALID,998.305,VALID,0,VALID,91.6775,VALID,0,VALID,22.9403,VALID,63,VALID,0.694922,
2011-10-01, 03:05:04,VALID,998.278,VALID,0,VALID,91.708,VALID,0,VALID,22.9208,VALID,63,VALID,0.785937,
2011-10-01, 03:06:04,VALID,998.335,VALID,0,VALID,91.7996,VALID,0.104696,VALID,22.919,VALID,63,VALID,0.608984,
2011-10-01, 03:07:04,VALID,998.325,VALID,0,VALID,91.8225,VALID,0,VALID,22.9208,VALID,63,VALID,0.663672,
2011-10-01, 03:08:04,VALID,998.366,VALID,0,VALID,91.7996,VALID,0,VALID,22.9208,VALID,63,VALID,0.621875,
2011-10-01, 03:09:04,VALID,998.36,VALID,0,VALID,91.7538,VALID,0,VALID,22.9225,VALID,63,VALID,0.485156,
2011-10-01, 03:10:04,VALID,998.401,VALID,0,VALID,91.6394,VALID,0,VALID,22.9225,VALID,63,VALID,0.304297,
2011-10-01, 03:11:04,VALID,998.379,VALID,0,VALID,91.4715,VALID,0,VALID,22.8835,VALID,63,VALID,0.0609375,
2011-10-01, 03:12:04,VALID,998.408,VALID,0,VALID,91.4181,VALID,0,VALID,22.8445,VALID,63,VALID,0.184766,
2011-10-01, 03:13:04,VALID,998.38,VALID,0,VALID,91.4028,VALID,0,VALID,22.8037,VALID,63,VALID,0.303516,
2011-10-01, 03:14:04,VALID,998.416,VALID,0,VALID,91.441,VALID,0,VALID,22.786,VALID,63,VALID,0.49375,
2011-10-01, 03:15:04,VALID,998.437,VALID,0,VALID,91.5783,VALID,0,VALID,22.7664,VALID,63,VALID,0.479297,
2011-10-01, 03:16:04,VALID,998.447,VALID,0,VALID,91.7462,VALID,0,VALID,22.7469,VALID,63,VALID,0.573828,
2011-10-01, 03:17:04,VALID,998.464,VALID,0,VALID,91.9064,VALID,0,VALID,22.7257,VALID,63,VALID,0.680859,
2011-10-01, 03:18:04,VALID,998.477,VALID,0,VALID,92.0743,VALID,0,VALID,22.7062,VALID,48,VALID,0.801562,
2011-10-01, 03:19:04,VALID,998.451,VALID,0,VALID,92.1506,VALID,0,VALID,22.6672,VALID,48,VALID,0.764063,
2011-10-01, 03:20:04,VALID,998.449,VALID,0,VALID,92.2345,VALID,0,VALID,22.6477,VALID,48,VALID,0.678125,
2011-10-01, 03:21:04,VALID,998.458,VALID,0,VALID,92.3566,VALID,0,VALID,22.6477,VALID,48,VALID,0.712109,
2011-10-01, 03:22:04,VALID,998.433,VALID,0,VALID,92.4634,VALID,0,VALID,22.6069,VALID,48,VALID,0.669141,
2011-10-01, 03:23:04,VALID,998.463,VALID,0,VALID,92.5778,VALID,0,VALID,22.6477,VALID,48,VALID,0.691797,
2011-10-01, 03:24:04,VALID,998.442,VALID,0,VALID,92.7075,VALID,0,VALID,22.6264,VALID,48,VALID,0.751172,
2011-10-01, 03:25:04,VALID,998.441,VALID,0,VALID,92.822,VALID,0,VALID,22.646,VALID,48,VALID,0.664063,
2011-10-01, 03:26:04,VALID,998.436,VALID,0,VALID,92.9059,VALID,0,VALID,22.646,VALID,48,VALID,0.317578,
2011-10-01, 03:27:04,VALID,998.467,VALID,0,VALID,92.9745,VALID,0,VALID,22.6477,VALID,48,VALID,0,
2011-10-01, 03:28:04,VALID,998.48,VALID,0,VALID,92.9822,VALID,0,VALID,22.6282,VALID,48,VALID,0,
2011-10-01, 03:29:04,VALID,998.435,VALID,0,VALID,93.0203,VALID,0.104696,VALID,22.646,VALID,48,VALID,0.233984,
2011-10-01, 03:30:04,VALID,998.453,VALID,0,VALID,93.0814,VALID,0.104696,VALID,22.6867,VALID,48,VALID,0.305859,
2011-10-01, 03:31:04,VALID,998.456,VALID,0,VALID,93.1043,VALID,0,VALID,22.685,VALID,48,VALID,0.304688,
2011-10-01, 03:32:04,VALID,998.452,VALID,0,VALID,93.1424,VALID,0,VALID,22.685,VALID,48,VALID,0.245703,
2011-10-01, 03:33:04,VALID,998.446,VALID,0,VALID,93.1805,VALID,0.104696,VALID,22.7045,VALID,48,VALID,0.366797,
2011-10-01, 03:34:04,VALID,998.466,VALID,0,VALID,93.1958,VALID,0,VALID,22.7045,VALID,48,VALID,0.527344,
2011-10-01, 03:35:04,VALID,998.471,VALID,0,VALID,93.2187,VALID,0,VALID,22.7647,VALID,48,VALID,0.59375,
2011-10-01, 03:36:04,VALID,998.467,VALID,0,VALID,93.2263,VALID,0,VALID,22.7647,VALID,48,VALID,0.338672,
2011-10-01, 03:37:04,VALID,998.477,VALID,0,VALID,93.2416,VALID,0,VALID,22.7452,VALID,48,VALID,0.407422,
2011-10-01, 03:38:04,VALID,998.457,VALID,0,VALID,93.2187,VALID,0,VALID,22.7647,VALID,48,VALID,0.74375,
2011-10-01, 03:39:04,VALID,998.448,VALID,0,VALID,93.1882,VALID,0.104696,VALID,22.724,VALID,48,VALID,0.86875,
2011-10-01, 03:40:04,VALID,998.491,VALID,0,VALID,93.1577,VALID,0.104696,VALID,22.724,VALID,48,VALID,0.803906,
2011-10-01, 03:41:04,VALID,998.5,VALID,0,VALID,93.1043,VALID,0,VALID,22.7435,VALID,48,VALID,0.848047,
2011-10-01, 03:42:04,VALID,998.474,VALID,0,VALID,93.0051,VALID,0,VALID,22.7435,VALID,48,VALID,0.9375,
2011-10-01, 03:43:04,VALID,998.491,VALID,0,VALID,92.9211,VALID,0,VALID,22.7647,VALID,48,VALID,0.939453,
2011-10-01, 03:44:04,VALID,998.499,VALID,0,VALID,92.8677,VALID,0,VALID,22.7647,VALID,48,VALID,0.967188,
2011-10-01, 03:45:04,VALID,998.526,VALID,0,VALID,92.822,VALID,0,VALID,22.7435,VALID,48,VALID,0.877734,